STARLINK-4271, 53012

Orbit data source: Space-Track

STARLINK-4271, 53012 is a payload satellite owned by SpaceX/Seattle (US) in LEO that was launched on Thu, 07 Jul 2022 UTC via an FALCON 9 launch vehicle from the Air Force Eastern Test Range (AFETR). Payload-class satellites include a variety of spacecraft equipped with specific instruments for various scientific and technological missions. These include communications satellites like Starlink; space stations such as the ISS; scientific satellites like the Hubble; Earth observation satellites from companies like Planet Labs, Umbra, and HawkEye 360; GPS; miniature CubeSats for education and research; and military/defense satellites.

Loading next visibility...
Identifier
53012, 2022-076AC
Orbit
LEO
Country
Flag of USUS
Related business
Manufacturer
SpaceX/Seattle
Mission
Operational Commercial Communications
Bus & Motor
STARLINK, Unknown motor
Mass
297 kg wet, ~275 kg dry
Launch date (UTC)
2022-07-07 (4 years ago)
Launch vehicle
FALCON 9
Launch site
Air Force Eastern Test Range (AFETR)
Object type
Payload
Rocket body
Debris
Shape & HBR
Box + 1 Pan, 10.1 m
Radar Cross Section
13.562 m², Large (>1 m²)

Expand to show TLE details & history
Last TLE update: 3 days ago

TLE from 3 days ago
0 STARLINK-4271
1 53012U 22076AC  26170.72485423  .00000152  00000-0  27632-4 0  9991
2 53012  53.1601 355.9558 0001206  84.4457 275.6672 15.08833560218252
Epoch: 2026-06-19T17:23Z
TLE epoch observation values (Epoch: 2026-06-19T17:23:47.405Z)
Latitude
-0.00002°
Longitude
-172.94145°
Altitude
540.572 km
Speed
7.593 km/s
True Right ascension
23h 43m 49s
True Declination
0° 00' 00"
Sunlit
Object was in daylight at epoch
Visualization orbit readout
Latitude
Unknown
Longitude
Unknown
Altitude
Unknown
Speed
Unknown
Apparent Right ascension
Unknown
Apparent Declination
Unknown
Sunlit
N/A
Visualization observer readout
Local Sidereal Time
21:37:38
Azimuth
Unknown
Elevation
Unknown
Doppler factor
Unknown
Orbital elements
Apogee altitude
540.852 km
Perigee altitude
539.183 km
Semi-major axis
6,918.154 km
Eccentricity
0.00012
Inclination
53.1601°
RAAN
355.9558°
Arg. of periapsis
84.4457°
True anomaly
275.65345°
Mean anomaly
275.6672°
Eccentric anomaly
275.66032°
Mean motion
3.77188 °/min
Orbital period
95.44 mins
BSTAR
0.000027632
Loading maneuver chart data...
Computing Atmospheric mass density...
Loading historical data...
Loading historical data...
Loading historical data...
Loading historical data...
Loading historical data...
Loading historical data...
Loading historical data...

Documentation

Showing up to 5 results
|